Temp
56 60 71 71 71 72 72 73 72 72 72 72 71 71 71 71 71 72 72 71 71 71 71 71 72 72 72 71 72 72 72 72 71 70 67 66 66 69 72 74 74 72 75
57 61 70 70 71 71 72 71 71 71 71 71 71 70 70 70 71 70 70 71 71 71 71 71 70 71 72 71 72 71 71 71 71 67 65 62 62 68 72 73 73 72 74
57 59 61 69 70 71 71 71 70 70 70 70 70 70 69 69 69 69 70 70 70 70 70 71 70 71 70 70 71 70 70 70 67 65 63 55 55 67 71 72 73 73 73
57 58 59 69 70 70 71 70 70 69 69 68 68 68 68 69 69 69 69 69 69 70 70 70 70 70 70 69 69 70 70 66 65 63 54 55 56 65 71 72 71 72 72
55 57 62 69 69 69 70 69 68 68 68 67 67 67 67 68 68 68 68 69 69 69 69 69 69 70 69 68 68 68 68 65 64 56 51 51 51 61 70 71 70 70 71
53 56 63 68 68 67 67 67 67 67 66 66 68 68 68 68 67 67 67 68 69 69 68 68 68 67 67 67 67 67 67 65 59 51 50 51 52 66 70 71 70 70 71
51 54 57 67 67 67 66 66 66 66 67 67 67 66 66 66 66 66 66 68 67 67 67 66 67 66 65 65 65 65 65 63 55 49 48 49 50 68 70 70 70 71 71
52 52 55 65 66 66 66 66 66 66 66 65 65 65 64 65 65 65 65 66 66 65 65 65 65 64 64 63 63 64 63 60 51 47 48 48 58 67 69 70 70 70 71
50 51 50 51 58 64 66 66 66 66 65 64 64 63 62 62 62 63 64 64 64 63 63 63 63 63 61 61 62 62 60 58 46 46 50 48 63 67 68 69 70 70 70
48 49 48 48 50 49 50 65 65 65 64 63 62 61 60 57 60 61 62 62 62 61 62 61 61 61 60 59 59 60 58 54 45 46 47 48 64 66 68 68 69 69 69
50 47 46 47 47 49 50 56 56 61 61 58 55 59 48 43 46 48 59 60 60 59 60 59 59 59 57 55 56 57 55 45 44 45 46 59 62 65 67 68 68 69 69
44 46 45 45 46 47 54 45 45 48 44 45 45 43 42 41 47 50 53 57 57 57 56 57 56 55 50 43 42 49 43 43 43 44 46 60 62 64 65 67 67 67 67
45 46 47 46 45 46 45 43 42 42 42 42 43 43 42 42 41 41 41 41 40 49 41 43 41 42 41 42 42 42 43 43 42 43 47 59 61 64 65 65 65 66 66
45 46 47 46 45 43 43 42 42 43 42 41 42 43 40 39 39 39 39 40 39 39 39 39 39 40 41 42 41 42 42 41 42 43 44 57 60 62 63 65 65 65 65
43 45 46 45 44 44 43 41 41 41 42 42 42 42 41 39 38 39 39 39 39 39 39 39 39 39 39 40 41 41 41 41 42 43 42 54 57 59 61 62 63 63 64
44 45 46 46 45 44 42 42 41 41 41 41 41 41 42 40 39 39 39 39 38 38 39 38 38 38 38 39 40 41 40 41 41 42 43 42 54 56 58 59 60 62 63
42 45 45 46 46 44 43 43 42 41 43 41 41 42 42 41 39 39 38 38 38 38 39 39 39 39 38 40 38 40 40 40 41 41 42 43 43 51 55 56 58 60 61
42 44 45 52 46 44 43 42 42 42 40 40 40 40 43 43 41 39 39 38 38 38 38 38 37 37 37 37 36 37 38 39 40 41 42 42 41 46 46 53 56 57 58
43 44 44 45 45 45 43 42 41 41 40 40 39 40 42 44 43 40 39 39 39 38 38 37 38 36 36 37 41 39 37 37 39 43 41 41 41 42 42 48 52 53 55
44 43 43 44 44 43 42 40 39 39 39 39 39 40 42 42 43 40 39 39 39 38 38 37 36 37 36 36 40 39 36 37 38 39 39 42 41 42 41 42 42 43 53
42 42 42 42 42 40 39 38 36 37 38 38 39 42 42 42 43 40 39 39 39 38 37 37 36 35 36 36 34 35 34 35 36 40 38 38 39 42 41 42 42 43 44
43 42 42 43 42 42 40 39 39 38 38 39 40 41 42 42 42 42 40 39 39 38 37 37 35 35 34 35 33 30 30 32 35 39 37 39 38 39 42 43 42 43 43
41 42 44 44 43 42 41 40 38 38 37 37 38 39 41 42 42 42 41 39 38 37 37 36 36 35 33 35 35 34 27 27 30 35 37 38 39 38 40 41 42 43 43
45 44 45 44 44 43 41 39 38 37 36 37 38 39 41 41 41 42 41 40 39 38 37 36 40 36 34 33 34 38 34 33 29 27 34 37 39 40 40 39 40 41 42
47 43 45 43 43 43 41 40 39 37 36 37 37 37 38 39 40 41 41 39 38 38 38 37 37 36 35 34 33 33 32 32 31 28 28 35 37 39 42 40 39 39 41
44 44 42 42 44 43 41 40 39 38 36 35 36 36 37 38 39 40 41 39 38 38 38 38 37 36 36 35 34 33 32 31 31 29 28 31 33 40 41 40 40 39 40
MSLP
1027.60 1027.21 1026.83 1026.79 1026.63 1026.35 1026.25 1026.06 1026.09 1025.99 1025.90 1025.86 1025.77 1025.66 1025.66 1025.53 1025.41 1025.18 1024.98 1024.81 1024.68 1024.59 1024.46 1024.29 1023.91 1023.72 1023.58 1023.50 1023.11 1022.96 1022.66 1022.46 1022.38 1022.48 1022.76 1022.68 1022.14 1021.44 1020.75 1020.15 1019.92 1019.80 1019.50
1027.52 1027.32 1026.99 1026.96 1026.82 1026.63 1026.51 1026.41 1026.36 1026.31 1026.32 1026.20 1026.12 1026.11 1025.98 1025.87 1025.64 1025.53 1025.35 1025.18 1024.96 1024.80 1024.69 1024.55 1024.43 1024.20 1023.89 1023.69 1023.37 1023.19 1023.06 1022.76 1022.62 1023.20 1023.32 1023.15 1022.77 1021.92 1021.08 1020.62 1020.37 1020.17 1020.04
1027.64 1027.48 1027.38 1027.12 1026.96 1026.86 1026.72 1026.65 1026.80 1026.74 1026.62 1026.58 1026.46 1026.40 1026.38 1026.24 1026.07 1025.88 1025.60 1025.51 1025.27 1025.11 1024.90 1024.65 1024.61 1024.38 1024.20 1023.99 1023.66 1023.52 1023.38 1023.12 1023.31 1023.65 1023.70 1023.50 1023.09 1022.28 1021.43 1021.00 1020.88 1020.68 1020.23
1027.85 1027.79 1027.55 1027.27 1027.10 1026.99 1026.91 1027.07 1027.05 1027.10 1027.10 1027.06 1026.97 1026.94 1026.85 1026.57 1026.29 1026.16 1025.99 1025.75 1025.49 1025.26 1025.10 1024.86 1024.74 1024.43 1024.23 1024.11 1024.03 1023.66 1023.46 1023.83 1023.79 1024.01 1024.12 1023.80 1023.37 1022.47 1021.49 1021.25 1021.16 1021.08 1020.87
1028.16 1027.94 1027.63 1027.43 1027.39 1027.33 1027.29 1027.41 1027.54 1027.54 1027.48 1027.47 1027.33 1027.22 1027.13 1026.82 1026.63 1026.44 1026.39 1026.05 1025.73 1025.50 1025.24 1025.04 1024.78 1024.44 1024.39 1024.32 1024.26 1024.11 1023.90 1024.13 1024.29 1024.67 1024.46 1024.09 1023.59 1022.85 1021.81 1021.49 1021.52 1021.46 1021.19
1028.36 1028.08 1027.79 1027.73 1027.81 1027.84 1027.84 1027.83 1027.86 1027.86 1027.82 1027.70 1027.38 1027.24 1027.08 1027.00 1026.94 1026.78 1026.68 1026.17 1025.92 1025.76 1025.53 1025.33 1025.17 1024.99 1024.95 1024.84 1024.64 1024.53 1024.31 1024.39 1025.08 1024.94 1024.68 1024.24 1023.78 1022.67 1021.97 1021.65 1021.55 1021.39 1021.30
1028.42 1028.29 1028.18 1027.98 1028.06 1028.10 1028.19 1028.14 1028.13 1028.07 1027.88 1027.77 1027.73 1027.67 1027.67 1027.46 1027.38 1027.16 1026.84 1026.41 1026.27 1025.99 1025.85 1025.80 1025.52 1025.43 1025.36 1025.29 1025.07 1024.80 1024.60 1024.73 1025.35 1025.35 1024.96 1024.52 1024.04 1022.62 1022.03 1021.70 1021.60 1021.46 1021.30
1028.40 1028.46 1028.42 1028.19 1028.18 1028.31 1028.32 1028.29 1028.24 1028.14 1028.13 1028.20 1028.15 1028.10 1028.07 1027.83 1027.72 1027.52 1027.23 1026.78 1026.70 1026.66 1026.38 1026.32 1026.04 1025.96 1025.92 1025.90 1025.53 1025.10 1025.05 1025.33 1025.76 1025.58 1025.13 1024.66 1023.91 1022.84 1022.17 1021.73 1021.61 1021.49 1021.34
1028.64 1028.72 1028.86 1028.84 1028.72 1028.63 1028.38 1028.39 1028.36 1028.44 1028.47 1028.56 1028.49 1028.51 1028.57 1028.45 1028.30 1027.97 1027.69 1027.37 1027.32 1027.36 1027.02 1026.76 1026.50 1026.43 1026.49 1026.32 1025.96 1025.66 1025.76 1025.80 1026.02 1025.74 1025.23 1024.78 1023.64 1022.90 1022.47 1022.12 1021.83 1021.58 1021.40
1029.05 1029.14 1029.22 1029.16 1029.13 1029.16 1029.16 1028.60 1028.67 1028.77 1028.94 1029.02 1028.93 1029.01 1029.08 1029.14 1028.88 1028.49 1028.32 1027.96 1027.84 1027.77 1027.43 1027.26 1027.06 1026.90 1026.93 1026.87 1026.48 1026.18 1026.19 1026.28 1026.14 1025.77 1025.43 1024.95 1023.73 1023.04 1022.53 1022.19 1021.94 1021.73 1021.61
1029.32 1029.37 1029.45 1029.44 1029.40 1029.35 1029.35 1029.28 1029.45 1029.29 1029.32 1029.69 1029.77 1029.47 1029.90 1029.73 1029.51 1029.35 1028.75 1028.64 1028.37 1028.24 1027.96 1027.75 1027.47 1027.40 1027.42 1027.39 1026.92 1026.45 1026.37 1026.43 1026.24 1025.95 1025.53 1024.46 1023.84 1023.27 1022.63 1022.27 1021.98 1021.60 1021.51
1029.40 1029.44 1029.55 1029.65 1029.58 1029.55 1029.51 1029.75 1029.88 1029.91 1030.25 1030.10 1030.40 1030.04 1030.20 1030.07 1029.66 1029.75 1029.43 1029.13 1029.14 1028.86 1028.65 1028.26 1027.96 1027.82 1027.84 1027.79 1027.52 1027.06 1026.81 1026.54 1026.30 1026.03 1025.49 1024.45 1023.90 1023.34 1022.86 1022.36 1022.04 1021.76 1021.71
1029.09 1029.28 1029.51 1029.64 1029.68 1029.68 1029.89 1030.00 1030.20 1030.30 1030.41 1030.37 1030.61 1030.28 1030.38 1030.33 1030.13 1030.20 1030.05 1029.83 1029.87 1029.53 1029.35 1028.97 1028.64 1028.24 1028.01 1027.79 1027.55 1027.30 1027.06 1026.72 1026.40 1026.05 1025.72 1024.54 1023.87 1023.16 1022.70 1022.41 1022.25 1021.92 1021.76
1029.18 1029.26 1029.41 1029.54 1029.75 1029.87 1029.95 1030.16 1030.28 1030.24 1030.54 1030.53 1030.56 1030.41 1030.56 1030.46 1030.65 1030.49 1030.32 1030.12 1030.12 1030.02 1029.65 1029.27 1028.95 1028.61 1028.17 1027.84 1027.61 1027.33 1027.18 1027.09 1026.84 1026.46 1026.04 1025.06 1024.18 1023.61 1023.13 1022.63 1022.25 1021.97 1021.84
1029.29 1029.24 1029.31 1029.46 1029.65 1029.85 1029.97 1030.09 1030.27 1030.44 1030.40 1030.23 1030.72 1030.68 1030.42 1030.71 1030.80 1030.64 1030.47 1030.20 1030.15 1030.09 1029.81 1029.56 1029.25 1028.92 1028.56 1028.16 1027.75 1027.49 1027.28 1027.04 1026.77 1026.52 1026.27 1025.54 1024.78 1024.24 1023.61 1023.16 1022.83 1022.50 1022.16
1028.93 1029.06 1029.08 1029.24 1029.32 1029.65 1029.86 1029.90 1030.03 1030.21 1030.10 1030.42 1030.70 1030.51 1030.54 1030.61 1030.74 1030.61 1030.45 1030.25 1030.24 1030.06 1029.78 1029.56 1029.39 1029.16 1028.88 1028.46 1027.99 1027.62 1027.47 1027.13 1026.76 1026.40 1026.10 1025.93 1025.31 1024.74 1024.22 1023.82 1023.27 1022.67 1022.06
1028.43 1028.53 1028.75 1028.94 1029.11 1029.36 1029.52 1029.65 1029.81 1029.95 1030.07 1030.29 1030.50 1030.44 1030.46 1030.46 1030.60 1030.53 1030.50 1030.41 1030.30 1030.01 1029.85 1029.45 1029.25 1029.06 1028.81 1028.43 1028.14 1027.76 1027.51 1027.25 1026.96 1026.56 1026.10 1025.78 1025.60 1025.14 1024.57 1024.03 1023.42 1022.81 1022.31
1028.06 1028.27 1028.39 1028.16 1028.76 1029.10 1029.29 1029.44 1029.63 1029.73 1030.01 1030.21 1030.26 1030.25 1030.24 1030.38 1030.35 1030.37 1030.39 1030.36 1030.14 1030.02 1029.73 1029.56 1029.44 1029.19 1028.92 1028.47 1027.95 1027.69 1027.51 1027.19 1026.84 1026.44 1026.15 1025.86 1025.52 1025.02 1024.70 1024.09 1023.55 1023.05 1022.50
1027.50 1027.81 1028.09 1028.24 1028.49 1028.72 1029.00 1029.30 1029.49 1029.60 1029.84 1029.90 1030.00 1030.12 1030.13 1030.11 1030.12 1030.18 1030.21 1030.11 1030.11 1030.04 1029.88 1029.75 1029.29 1029.16 1028.85 1028.50 1028.02 1027.55 1027.45 1027.22 1026.97 1026.56 1026.33 1025.99 1025.65 1025.25 1024.84 1024.26 1023.59 1023.18 1022.60
1027.19 1027.51 1027.83 1028.15 1028.30 1028.50 1028.86 1029.18 1029.48 1029.63 1029.59 1029.69 1029.77 1029.88 1029.84 1029.93 1029.93 1029.93 1029.97 1030.01 1029.95 1029.95 1029.78 1029.58 1029.50 1029.04 1028.88 1028.57 1028.17 1027.72 1027.38 1027.18 1027.02 1026.70 1026.57 1026.09 1025.65 1025.20 1024.76 1024.25 1023.68 1023.20 1022.68
1027.03 1027.48 1027.67 1027.94 1028.07 1028.57 1028.96 1029.22 1029.42 1029.40 1029.40 1029.48 1029.52 1029.44 1029.53 1029.58 1029.49 1029.80 1029.86 1029.86 1029.82 1029.99 1029.82 1029.74 1029.67 1029.41 1028.93 1028.58 1028.20 1027.72 1027.37 1027.21 1027.20 1026.54 1026.57 1026.30 1025.70 1025.10 1024.64 1024.16 1023.71 1023.25 1022.72
1026.54 1026.88 1027.23 1027.37 1027.63 1027.94 1028.18 1028.40 1028.52 1028.74 1028.88 1028.88 1028.98 1029.04 1029.10 1029.15 1029.33 1029.50 1029.58 1029.68 1029.74 1029.85 1029.73 1029.75 1029.79 1029.72 1029.47 1029.10 1029.25 1029.24 1028.64 1027.63 1027.10 1026.49 1026.40 1026.12 1025.66 1025.10 1024.50 1024.02 1023.65 1023.12 1022.64
1025.86 1026.16 1026.41 1026.63 1026.90 1027.22 1027.52 1028.03 1028.47 1028.74 1028.93 1029.01 1028.98 1028.88 1028.72 1028.83 1028.97 1029.09 1029.22 1029.42 1029.48 1029.60 1029.68 1029.71 1029.68 1029.72 1029.83 1029.39 1029.26 1029.49 1029.64 1029.31 1027.99 1026.76 1026.28 1026.01 1025.60 1025.16 1024.54 1023.95 1023.46 1023.07 1022.62
1024.51 1025.17 1025.52 1025.91 1026.27 1026.58 1027.07 1027.61 1027.94 1028.37 1028.69 1028.60 1028.55 1028.47 1028.45 1028.56 1028.65 1028.73 1028.93 1029.07 1029.19 1029.34 1029.45 1029.48 1029.22 1029.49 1029.66 1029.64 1029.31 1029.24 1029.24 1029.25 1029.21 1028.14 1026.73 1026.15 1025.82 1025.26 1024.35 1023.80 1023.17 1022.80 1022.41
1023.99 1024.38 1024.78 1025.29 1025.73 1025.99 1026.42 1026.84 1027.34 1027.89 1027.98 1028.20 1028.46 1028.51 1028.53 1028.48 1028.45 1028.45 1028.55 1028.76 1028.87 1029.09 1029.11 1029.15 1029.20 1029.35 1029.40 1029.38 1029.38 1029.25 1029.18 1029.01 1028.94 1029.07 1027.67 1026.43 1025.76 1025.15 1024.23 1023.66 1023.14 1022.66 1022.08
1023.12 1023.74 1024.27 1024.80 1025.05 1025.43 1025.79 1026.17 1026.64 1027.09 1027.52 1028.07 1028.25 1028.40 1028.38 1028.39 1028.33 1028.23 1028.23 1028.39 1028.44 1028.64 1028.73 1028.69 1028.76 1028.92 1028.99 1028.96 1028.85 1028.92 1029.03 1028.91 1028.69 1028.61 1027.98 1026.75 1025.87 1024.62 1024.03 1023.29 1022.87 1022.46 1021.83
Wind_Speed
4 5 7 8 7 7 8 11 11 11 12 12 13 13 14 13 14 15 15 15 15 16 16 16 16 16 16 16 16 17 17 16 18 19 21 19 19 18 18 18 18 14 20
3 6 7 7 6 7 7 10 10 13 11 11 12 12 13 13 13 14 14 15 16 15 15 16 17 16 16 15 16 17 16 16 18 22 20 18 18 17 17 17 18 15 18
6 5 6 6 5 8 8 9 9 8 10 10 9 12 13 13 13 14 15 16 16 16 16 16 15 15 16 16 16 15 15 16 18 19 19 8 9 16 15 15 15 15 18
5 3 2 6 7 6 8 8 9 11 10 10 12 12 11 12 13 13 15 15 15 15 16 15 15 15 15 15 16 15 15 17 19 19 8 8 9 15 14 12 14 14 14
4 3 3 5 7 8 8 9 9 9 9 10 10 10 9 10 12 14 14 14 14 15 15 15 15 16 17 18 17 17 16 15 19 12 7 7 6 12 12 11 11 12 13
4 4 5 8 7 7 7 7 8 8 9 8 9 9 11 13 13 13 13 13 15 14 15 17 17 18 17 17 17 15 15 16 16 8 7 9 8 14 13 11 12 13 13
5 4 5 6 7 7 6 7 7 6 6 10 11 12 12 12 12 13 13 15 14 17 17 17 16 18 18 18 16 17 17 19 11 7 7 7 9 14 12 11 11 12 13
6 4 6 6 4 6 6 6 5 6 8 10 10 11 11 12 13 13 13 13 16 18 17 16 16 17 17 18 17 16 17 17 10 6 7 6 13 14 15 13 12 13 13
4 5 5 5 6 6 7 5 5 6 8 8 10 10 11 11 12 12 14 15 17 16 14 14 14 16 17 17 16 16 16 15 6 5 7 5 14 13 12 12 13 13 14
4 3 3 3 4 4 5 5 6 7 8 9 10 11 11 12 12 12 13 16 16 17 14 15 15 15 16 16 16 16 16 14 6 6 4 6 16 15 13 12 12 12 15
2 2 2 2 3 3 4 6 7 9 8 10 9 11 9 4 6 9 12 15 17 16 17 16 15 15 15 14 15 16 15 4 4 4 3 14 15 16 15 15 14 13 13
4 3 2 2 3 3 3 4 4 5 3 4 3 5 4 5 5 6 9 14 16 16 16 17 16 16 11 4 4 10 4 5 4 4 3 15 14 13 13 15 14 16 15
5 3 3 3 2 4 3 3 2 2 2 2 3 4 4 3 4 3 3 3 4 9 4 7 6 4 6 4 4 3 4 5 4 4 8 16 15 15 14 15 15 14 17
6 5 5 4 4 3 2 2 2 2 1 2 1 4 2 3 3 3 2 3 3 3 5 5 4 5 6 6 6 6 5 4 3 3 7 18 16 16 16 15 16 16 17
6 6 6 6 5 4 3 2 2 2 2 3 1 1 3 2 1 2 2 2 3 3 3 4 4 4 5 6 6 6 7 6 5 2 2 15 16 16 16 17 19 19 19
7 7 7 7 6 5 4 4 3 2 2 2 1 1 2 2 1 1 2 3 3 3 3 3 4 4 4 4 6 5 6 5 5 6 3 4 15 14 15 17 17 19 19
7 7 8 7 6 6 5 4 3 3 3 2 2 1 1 2 1 2 1 2 2 3 4 4 4 4 4 5 5 5 4 5 5 6 5 5 6 13 16 16 16 17 18
6 9 8 6 7 7 6 4 3 3 2 3 2 1 1 2 2 1 1 2 3 3 3 3 2 4 4 4 4 4 3 3 5 5 5 5 5 6 10 17 17 18 17
9 9 8 7 8 8 5 3 3 3 3 3 2 2 3 2 1 1 0 2 2 2 3 2 2 1 3 5 7 4 3 2 4 5 5 5 5 6 5 13 17 16 17
8 7 6 6 7 7 4 2 1 2 3 3 3 4 4 3 3 1 1 1 2 3 3 3 3 3 2 3 5 5 2 2 3 5 5 6 5 6 6 7 7 7 17
6 7 8 8 8 4 2 2 1 3 3 3 4 5 5 4 2 3 2 2 1 2 3 3 3 4 4 4 3 2 3 2 3 4 3 4 5 7 6 6 5 5 7
9 10 9 9 8 7 3 3 3 3 2 2 3 4 5 5 5 4 4 3 2 2 4 3 2 3 3 4 3 1 6 5 3 4 4 4 5 5 8 8 7 7 7
11 13 12 12 10 7 7 3 2 2 1 0 3 3 4 6 6 5 5 4 3 2 3 2 2 1 1 3 1 2 3 3 5 3 3 4 7 5 6 7 7 7 7
16 10 11 10 11 9 8 5 6 5 5 4 3 3 4 5 5 5 6 5 4 3 4 3 2 2 2 3 3 1 3 3 2 6 3 3 5 7 6 5 6 6 6
11 12 12 10 9 8 8 8 6 6 4 2 2 3 4 4 5 6 5 5 5 4 4 4 4 3 3 2 3 1 2 2 3 4 7 7 3 4 6 6 5 5 6
9 10 10 11 12 10 10 10 10 9 7 4 4 4 4 3 4 5 5 5 5 5 5 5 4 5 5 4 3 3 3 3 3 3 4 5 7 7 5 6 6 5 6
Wind_Direction
355 337 51 27 17 25 16 25 30 38 32 23 21 22 25 19 22 20 21 19 23 23 15 15 13 10 15 9 8 2 6 7 16 11 1 354 350 351 352 8 11 7 3
101 19 52 34 34 46 45 48 33 31 24 29 24 27 26 19 21 18 17 18 14 14 16 14 10 7 7 7 5 7 6 5 7 17 6 1 354 351 355 3 5 0 356
68 42 13 51 41 47 40 45 41 32 30 26 29 21 26 17 24 18 12 11 10 11 9 7 11 3 9 359 3 5 8 5 30 18 13 350 342 352 358 3 7 2 354
80 49 29 72 67 59 54 45 36 36 28 24 24 22 19 16 18 18 16 3 7 7 7 7 6 358 2 6 8 3 10 37 30 17 4 349 345 343 358 6 10 5 2
86 57 59 75 61 42 47 45 37 32 30 29 26 22 18 14 16 15 15 2 5 7 2 7 1 4 11 11 11 6 7 36 30 16 357 336 356 324 356 5 5 2 358
114 61 77 74 78 61 49 48 49 44 39 21 23 21 19 8 17 15 11 0 10 2 6 10 9 11 15 8 1 1 4 31 26 5 351 341 338 325 345 358 358 353 352
105 46 354 87 80 61 63 60 58 53 41 29 24 16 17 8 11 13 6 14 8 14 11 12 6 8 15 7 5 2 7 18 24 357 342 333 326 344 343 350 349 347 345
118 72 44 51 90 74 77 61 57 48 40 30 28 25 20 16 14 15 11 17 21 8 8 9 9 13 9 5 4 3 12 13 11 349 333 328 325 346 342 345 346 342 341
107 86 55 41 40 33 29 56 58 39 47 32 33 31 28 17 20 20 22 21 22 9 11 12 14 13 18 7 8 13 19 8 6 342 344 326 327 342 340 338 336 337 335
93 91 83 56 45 54 22 35 51 53 47 41 34 32 38 29 23 20 30 20 22 13 19 17 18 19 22 10 8 12 15 11 349 341 332 313 345 337 335 335 330 333 335
131 128 106 109 77 61 64 49 42 44 50 46 36 36 32 14 9 13 26 25 19 21 16 12 9 12 16 7 3 5 8 342 346 337 325 334 338 333 334 340 328 323 324
174 198 174 151 110 90 83 80 74 58 66 59 39 51 40 28 11 37 23 30 18 26 12 10 3 8 5 339 337 354 338 339 339 329 332 347 343 337 328 330 333 337 344
179 181 176 166 129 125 114 101 71 81 77 60 49 54 47 42 28 19 10 16 6 5 0 359 355 351 348 344 337 334 336 341 340 335 341 355 348 343 345 334 335 333 340
184 192 182 170 145 138 117 127 140 102 124 135 81 56 68 46 18 11 13 1 3 343 350 352 350 339 348 344 343 344 350 348 341 333 343 355 352 352 347 339 334 339 328
193 199 190 173 171 166 135 140 156 163 157 99 83 132 93 84 49 352 3 355 339 333 339 343 348 346 345 342 340 351 348 348 349 343 322 354 358 354 347 348 343 334 323
195 201 190 194 178 167 178 183 175 181 136 144 176 61 113 113 129 38 15 5 342 333 313 321 327 339 332 335 331 344 341 345 341 345 347 345 2 0 356 345 334 329 325
202 195 192 191 180 180 189 194 181 192 159 153 188 175 141 122 123 75 37 2 335 315 323 334 335 336 335 331 326 336 344 345 342 341 342 345 346 355 350 344 337 332 329
183 192 190 186 178 190 195 195 192 176 176 190 191 189 212 204 135 107 48 343 322 335 345 333 319 327 334 331 322 316 329 336 338 346 347 346 342 352 344 347 345 342 333
194 185 195 194 190 195 197 191 199 189 198 198 184 209 236 225 195 144 70 332 324 350 357 336 320 14 332 337 324 323 325 319 337 354 351 344 336 336 326 334 346 344 337
198 191 191 192 201 192 174 149 187 206 227 200 209 216 225 228 218 153 330 297 7 357 344 358 339 326 281 298 310 320 335 318 329 357 340 336 328 329 320 317 319 322 336
193 191 198 190 206 162 160 160 211 212 201 216 217 220 218 223 232 222 233 290 4 324 314 336 329 343 315 330 326 336 323 334 308 326 327 314 321 329 314 314 314 314 314
194 200 196 205 193 196 175 187 172 168 198 181 199 221 220 217 223 224 214 239 251 304 321 343 23 335 304 8 14 331 347 334 335 336 323 316 316 313 328 321 310 314 311
197 200 202 204 199 200 194 132 91 56 42 341 239 235 226 218 227 226 226 225 237 223 284 305 313 22 309 307 29 135 353 302 332 297 308 333 338 325 319 314 306 313 309
213 201 202 199 202 203 183 180 182 183 194 216 205 213 226 218 228 235 230 226 227 228 257 263 244 236 165 285 325 195 243 202 277 323 308 301 326 316 297 303 296 302 309
202 198 204 199 203 205 188 194 191 202 203 189 227 232 242 242 235 243 229 230 231 224 248 248 267 240 209 237 196 283 278 262 225 226 298 317 292 299 311 291 302 299 304
196 194 193 197 211 203 197 200 199 202 197 192 216 225 233 240 245 245 238 226 229 227 241 252 244 244 242 234 234 230 222 228 254 238 267 294 297 324 299 294 306 308 302